sat.trackr.live / text

‹ back to catalog

FLOCK 4G-14

NORAD 62667 · 2025-009BL

PAYLOAD ACTIVE UNKNOWN

§ Identity

Operator
Country
US
Launch date
2025-01-14
Launch site
AFWTR
Launch vehicle
Mass (kg)
RCS (m²)

Purposes: earth_obs

External: N2YO · Heavens-Above · Gunter

§ Orbital elements

Epoch: 2026-05-25T04:22:07.207968Z

Period
94.20 min
Inclination
97.4024°
Eccentricity
0.0005286
Mean motion
15.28696533 rev/d
Perigee alt
476.1 km
Apogee alt
483.3 km
Semi-major
6,857.8 km
B*
3.5773e-4
RAAN
227.1160°
Arg perigee
55.5605°
Mean anomaly
304.6133°
Rev number
7,538

§ Raw data

FLOCK 4G-141 62667U 25009BL  26145.18202787  .00009913  00000+0  35773-3 0  99952 62667  97.4024 227.1160 0005286  55.5605 304.6133 15.28696533 75382

JSON: /api/v1/satellites/62667 · /tle

For live sub-satellite position, see the globe view (requires WebGL).

§ Visibility from observer

Set your observer location to see the next 7 days of passes ≥ 10°. The values pass through the URL so the page stays shareable.

No JS? Fill the form by hand. The geolocation button needs JavaScript.